Regional Weather Roundup
Issued by NWS Newport/Morehead, NC

Current Version | Previous Version | Text Only | Print | Product List | Glossary On
Versions: 1 2 3 4 5 6 7 8 9 10 11 12 13 14 15 16 17 18 19 20 21 22 23 24 25 26 27 28 29 30 31 32 33 34 35 36 37 38 39 40 41 42 43 44 45 46 47 48 49 50
000 ASUS42 KMHX 271513 RWRMHX WEATHER ROUNDUP FOR EASTERN NORTH CAROLINA NATIONAL WEATHER SERVICE NEWPORT/MOREHEAD CITY NC 1100 AM EDT WED MAY 27 2015 NOTE: "FAIR" INDICATES FEW OR NO CLOUDS BELOW 12,000 FEET WITH NO SIGNIFICANT WEATHER AND/OR OBSTRUCTIONS TO VISIBILITY NCZ015>017-031-032-045>047-102-103-271600- NORTH COAST CITY SKY/WX TMP DP RH WIND PRES REMARKS EDENTON CLOUDY 79 70 74 S9 30.27S ELIZABETH CITY MOSUNNY 80 71 74 S12 30.27S KITTY HAWK MOSUNNY 78 66 66 S8G17 30.27S MANTEO SUNNY 77 66 69 S14 30.29S $$ NCZ045>047-081-094-103-104-271600- CENTRAL COAST CITY SKY/WX TMP DP RH WIND PRES REMARKS FRISCO SUNNY 77 64 64 S9 30.31R SWANQUARTER N/A 79 N/A N/A S14 30.27S $$ NCZ095-097-098-100-101-271600- SOUTHERN COAST CITY SKY/WX TMP DP RH WIND PRES REMARKS BEAUFORT CLOUDY 77 67 71 S9 30.30R CEDAR ISLAND N/A 79 N/A N/A SE9G16 30.33S JACKSONVILLE PTSUNNY 81 69 67 S8 30.27S PINEY ISLAND CLOUDY N/A N/A N/A S9 30.29R WILMINGTON MOSUNNY 82 67 60 S6 30.27F $$ NCZ011>013-027>030-043-044-078>080-089-090>093-098-271600- COASTAL PLAIN CITY SKY/WX TMP DP RH WIND PRES REMARKS AHOSKIE MOSUNNY 80 70 72 CALM 30.26S CLINTON RAIN 75 72 90 W6 30.28S ELIZABETHTOWN PTSUNNY 79 70 74 SW6 30.27F GOLDSBORO PTSUNNY 81 70 69 SW7G18 30.24S GREENVILLE PTSUNNY 81 70 69 SW9 30.27S HAVELOCK CLOUDY 78 67 68 S12 30.30R KENANSVILLE MOSUNNY 80 69 67 CALM 30.28F KINSTON MOSUNNY 81 70 69 S6 30.27S NEW BERN PTSUNNY 81 70 69 S8 30.29S RICHLANDS CLOUDY 82 68 61 S8 30.28S ROCKY MOUNT LGT RAIN 78 71 79 SW7 30.26S WASHINGTON MOSUNNY 79 70 73 S8 30.27S WHITEVILLE CLOUDY 81 68 63 S7 30.26F $$ AMZ130-135-150-152-154-156-158-170-250-252-270-ANZ085-086-088-633-658-670-271600- MARINE OBSERVATIONS STATION/POSITION TIME TEMP WIND PRES WAVE SWELL AIR SEA DIR/SP/G HT/PER HT/PER (UTC) (F) (DEG/KT/KT) (MB) (FT/S) (FT/S) CHESAPEAKE LIGHT 1400 67 180/ 23/ 24 1024.4 64 E VA BEACH 1450 66 63 160/ 10/ 10 1025.4 3/ 5 3/ 5 DUCK 1400 75 56 180/ 13/ 16 1024.0 2 E DUCK 1411 62 N/A 2/ 6 OREGON INLET 1400 75 75 180/ 12/ 15 1025.7 13E OREGON INLT 1500 70 N/A 2/ 5 HATTERAS CG 1400 77 74 160/ 8/ 12 1025.5 DIAMOND BUOY 1450 75 77 160/ 10/ 12 1026.1 3/ 7 2/ 7 CAPE LOOKOUT 1500 75 150/ 8/ 9 1025.8 BEAUFORT LAB 1400 77 75 180/ 9/ 12 1024.7 27 SE WRIGHTSVLE 1400 74 76 220/ 4/ 4 N/A 5 SE WRIGHTSVLE 1408 77 76 200/ 6/ 8 1025.7 225 S CAPE HAT 1450 73 74 100/ 12/ 14 1025.7 4/ 8 3/ 8 41 SE CHARLESTON 1450 77 77 110/ 6/ 6 1025.0 3/ 7 3/ 7 $$

USA.gov is the U.S. government's official web portal to all federal, state and local government web resources and services.